Date,TemperatureHighF,TemperatureAvgF,TemperatureLowF,DewpointHighF,DewpointAvgF,DewpointLowF,HumidityHigh,HumidityAvg,HumidityLow,PressureMaxIn,PressureMinIn,WindSpeedMaxMPH,WindSpeedAvgMPH,GustSpeedMaxMPH,PrecipitationSumIn
2012-10-28,45,45,45,26,26,26,48,48,48,30.19,30.19,5,5,5,0.00
2012-10-29,56,46,29,32,25,19,88,49,25,30.29,30.13,6,1,6,0.00
2012-10-30,63,53,44,32,27,22,50,38,21,30.04,29.93,6,3,6,0.00
2012-10-31,63,49,35,34,28,24,75,48,24,30.01,29.95,8,4,8,0.00
2012-11-1,74,56,39,44,38,31,79,54,21,30.00,29.88,9,2,9,0.00
2012-11-2,71,59,41,46,41,31,89,55,31,30.19,29.80,9,4,12,0.00
2012-11-3,62,53,40,48,39,36,90,60,40,30.08,29.80,12,7,15,0.00
2012-11-4,64,49,31,41,33,27,99,60,26,30.13,30.00,6,2,7,0.00
2012-11-5,50,45,42,46,43,37,99,91,63,29.98,29.85,8,5,8,0.26
2012-11-6,55,46,42,44,40,33,99,81,47,29.95,29.85,11,4,11,0.01
2012-11-7,53,43,33,35,32,30,91,68,45,30.05,29.91,13,4,13,0.00
2012-11-8,66,48,31,40,35,30,96,64,28,30.07,29.91,14,6,14,0.00
2012-11-9,76,60,47,57,49,40,80,69,47,29.93,29.81,15,7,15,0.00
2012-11-10,79,66,53,55,49,42,81,58,28,29.90,29.77,20,11,27,0.00
2012-11-11,70,57,39,59,53,39,99,88,68,29.90,29.68,21,10,31,0.51
2012-11-12,47,38,25,28,21,16,97,54,33,30.27,30.09,11,6,15,0.00
2012-11-13,60,43,25,30,22,14,86,47,18,30.38,30.26,6,1,6,0.00
2012-11-14,60,48,31,31,17,0,81,36,10,30.32,30.20,5,2,7,0.00
2012-11-15,60,49,29,30,25,17,74,41,19,30.26,30.20,4,2,5,0.00
2012-11-16,68,53,34,36,28,19,73,42,16,30.33,30.26,5,2,7,0.00
2012-11-17,67,52,33,32,22,7,77,37,10,30.34,30.21,7,3,10,0.00
2012-11-18,69,51,35,33,23,8,79,44,10,30.25,30.16,8,4,11,0.00
2012-11-19,58,49,44,49,44,35,99,83,56,30.14,30.02,8,5,8,0.08
2012-11-20,66,56,45,48,45,42,99,68,45,30.06,30.00,10,6,10,0.01
2012-11-21,75,58,37,53,37,26,99,52,19,30.17,29.92,6,3,9,28.03
2012-11-22,71,60,45,50,45,39,84,60,39,29.89,29.74,16,8,23,0.01
2012-11-23,45,38,26,34,23,14,85,54,36,30.16,30.04,18,9,22,0.02
2012-11-24,49,37,20,21,15,7,79,45,21,30.15,29.81,8,4,12,0.00
2012-11-25,64,54,43,30,23,17,46,30,18,29.76,29.67,11,5,15,0.00
2012-11-26,43,39,33,31,28,22,84,65,44,30.26,29.97,21,11,22,0.00
2012-11-27,46,31,18,23,18,14,94,64,28,30.42,30.27,8,3,8,0.00
2012-11-28,57,40,29,28,23,17,73,53,28,30.41,30.23,5,3,5,0.00
2012-11-29,67,50,33,35,30,23,89,50,20,30.23,30.06,11,5,12,0.00
2012-11-30,71,59,29,50,44,27,93,61,45,30.09,29.86,11,5,12,0.00
2012-12-1,70,61,50,58,55,49,99,82,65,29.89,29.70,19,9,21,0.00
2012-12-2,76,69,58,62,58,31,99,69,52,30.15,29.75,12,6,14,0.00
2012-12-3,74,65,59,61,58,53,99,79,48,29.85,29.72,19,10,19,0.06
2012-12-4,60,53,48,59,44,31,99,77,35,30.11,29.84,15,6,15,0.78
2012-12-5,63,50,35,37,32,23,80,53,23,30.20,30.04,9,2,9,0.78
2012-12-6,59,48,36,46,40,31,99,75,55,29.95,29.73,9,4,9,0.00
2012-12-7,61,54,44,51,50,44,99,85,68,29.76,29.68,8,3,10,0.05
2012-12-8,47,44,42,47,43,42,99,99,99,29.84,29.71,8,4,9,0.04
2012-12-9,50,46,43,48,45,41,99,98,92,29.75,29.66,9,5,14,0.05
2012-12-10,33,25,19,21,19,16,93,76,60,29.92,29.80,14,6,14,0.05
2012-12-11,48,30,17,19,17,14,96,65,25,29.98,29.90,8,4,8,0.00
2012-12-12,54,38,25,21,14,4,75,43,13,30.14,30.04,11,5,11,0.00
2012-12-13,60,46,32,24,20,15,57,38,18,30.11,29.99,14,7,14,0.00
2012-12-14,54,44,32,41,26,23,96,50,31,30.03,29.71,17,6,20,0.14
2012-12-15,66,56,43,49,44,38,99,65,41,29.69,29.50,21,12,27,0.20
2012-12-16,68,52,36,42,36,31,99,59,26,29.62,29.49,8,3,10,0.00
2012-12-17,40,38,36,39,37,35,99,98,90,29.62,29.56,10,6,15,0.00
2012-12-18,61,45,33,37,34,30,99,69,33,29.75,29.59,14,5,14,0.00
2012-12-19,57,48,34,57,45,32,99,91,72,29.76,29.32,16,7,16,0.19
2012-12-20,55,33,24,55,28,18,99,84,64,30.01,29.20,29,18,39,3.08
2012-12-21,45,33,23,18,12,-3,79,45,13,30.18,30.00,19,6,19,0.00
2012-12-22,64,46,22,23,14,3,77,36,10,30.11,29.83,14,6,17,0.00
2012-12-23,64,53,38,45,39,19,76,59,33,29.82,29.68,9,4,11,0.00
2012-12-24,38,30,21,31,23,19,98,76,54,29.93,29.70,12,7,12,0.00
2012-12-25,29,24,18,23,20,15,95,84,75,30.01,29.85,16,10,21,0.00
2012-12-26,32,26,18,19,18,15,87,73,57,30.00,29.85,15,9,15,0.00
2012-12-27,37,30,18,26,23,16,95,75,59,29.98,29.82,13,6,15,0.00
2012-12-28,45,34,27,40,30,22,99,83,63,29.84,29.73,11,4,12,0.00
2012-12-29,34,26,21,21,17,15,85,69,47,30.14,29.83,12,8,20,0.00
2012-12-30,47,39,23,27,16,10,75,42,24,30.25,30.06,12,7,17,0.11
2012-12-31,37,34,32,35,32,19,99,93,50,30.06,29.86,8,3,8,0.15
2013-1-1,32,24,20,32,23,15,99,92,81,30.08,29.91,11,6,13,0.01